AFR56ED LFRS-LFMN

Flight info

Callsign AFR56ED
Flight time 1h 18m
Altitude 35000
Route LUGEN UM184 TUPAR DCT DIDRU DCT ADATU DCT LERGA DCT LIQID DCT LATAM DCT TUNUR DCT NISAR
Aircraft A320/M-SDE3FGHIRWY/LB1

Departure

Time 2026-05-04 15:03
Airport Nantes Atlantique Airport (LFRS)

Arrival

Time 2026-05-04 16:22
Airport Nice-Côte d'Azur Airport (LFMN)
Time Latitude Longitude Altitude Speed Heading
2026-05-04 14:33 47.15717 -1.60263 90 ft 0 kts 44°
2026-05-04 14:51 47.15710 -1.60273 93 ft 2 kts 44°
2026-05-04 14:51 47.15698 -1.60291 92 ft 2 kts 44°
2026-05-04 14:51 47.15689 -1.60303 91 ft 0 kts 44°
2026-05-04 14:55 47.15686 -1.60307 90 ft 0 kts 44°
2026-05-04 14:56 47.15678 -1.60320 91 ft 3 kts 65°
2026-05-04 14:56 47.15673 -1.60346 90 ft 3 kts 102°
2026-05-04 14:56 47.15680 -1.60370 90 ft 2 kts 138°
2026-05-04 14:56 47.15681 -1.60371 90 ft 0 kts 139°
2026-05-04 14:57 47.15671 -1.60358 93 ft 10 kts 139°
2026-05-04 14:57 47.15610 -1.60283 90 ft 11 kts 146°
2026-05-04 14:57 47.15540 -1.60303 93 ft 13 kts 221°
2026-05-04 14:57 47.15543 -1.60449 92 ft 17 kts 305°
2026-05-04 14:58 47.15581 -1.60589 90 ft 15 kts 246°
2026-05-04 14:58 47.15479 -1.60683 91 ft 24 kts 207°
2026-05-04 14:58 47.15325 -1.60801 94 ft 25 kts 206°
2026-05-04 14:58 47.15161 -1.60924 91 ft 27 kts 207°
2026-05-04 14:59 47.14991 -1.61053 88 ft 28 kts 207°
2026-05-04 14:59 47.14810 -1.61194 90 ft 30 kts 208°
2026-05-04 14:59 47.14442 -1.61473 91 ft 26 kts 207°
2026-05-04 15:00 47.14307 -1.61576 86 ft 21 kts 208°
2026-05-04 15:00 47.14200 -1.61657 85 ft 11 kts 206°
2026-05-04 15:00 47.14172 -1.61696 83 ft 0 kts 247°
2026-05-04 15:01 47.14160 -1.61738 86 ft 11 kts 249°
2026-05-04 15:01 47.14139 -1.61850 84 ft 11 kts 276°
2026-05-04 15:02 47.14180 -1.61930 88 ft 9 kts 354°
2026-05-04 15:02 47.14229 -1.61902 85 ft 0 kts 27°
2026-05-04 15:02 47.14269 -1.61871 84 ft 31 kts 27°
2026-05-04 15:03 47.14688 -1.61550 93 ft 101 kts 27°
2026-05-04 15:03 47.15490 -1.60940 90 ft 156 kts 27°
2026-05-04 15:03 47.16492 -1.60206 611 ft 161 kts 30°
2026-05-04 15:03 47.17176 -1.58933 1340 ft 165 kts 74°
2026-05-04 15:04 47.17072 -1.57250 1998 ft 174 kts 115°
2026-05-04 15:04 47.16155 -1.55974 2298 ft 197 kts 152°
2026-05-04 15:04 47.14854 -1.55009 2581 ft 222 kts 152°
2026-05-04 15:04 47.13400 -1.53941 2963 ft 246 kts 152°
2026-05-04 15:05 47.11804 -1.52763 3504 ft 265 kts 152°
2026-05-04 15:05 47.10140 -1.51526 4365 ft 270 kts 152°
2026-05-04 15:05 47.08456 -1.50263 5311 ft 273 kts 152°
2026-05-04 15:05 47.06789 -1.48898 6247 ft 275 kts 142°
2026-05-04 15:06 47.05339 -1.47057 7144 ft 277 kts 137°
2026-05-04 15:06 47.03900 -1.45165 8039 ft 279 kts 137°
2026-05-04 15:06 47.02447 -1.43254 8917 ft 282 kts 137°
2026-05-04 15:07 46.99479 -1.39364 10376 ft 299 kts 137°
2026-05-04 15:07 46.97873 -1.37266 10698 ft 319 kts 138°
2026-05-04 15:07 46.96195 -1.35079 11348 ft 326 kts 138°
2026-05-04 15:07 46.94489 -1.32861 12106 ft 330 kts 139°
2026-05-04 15:08 46.92762 -1.30620 12873 ft 334 kts 139°
2026-05-04 15:08 46.91017 -1.28357 13638 ft 337 kts 139°
2026-05-04 15:08 46.89252 -1.26069 14321 ft 340 kts 139°
2026-05-04 15:08 46.87472 -1.23762 15021 ft 343 kts 139°
2026-05-04 15:09 46.85684 -1.21442 15711 ft 345 kts 140°
2026-05-04 15:09 46.83882 -1.19101 16397 ft 348 kts 140°
2026-05-04 15:09 46.82069 -1.16748 17077 ft 350 kts 140°
2026-05-04 15:10 46.79001 -1.12771 18198 ft 354 kts 140°
2026-05-04 15:10 46.77149 -1.10375 18787 ft 357 kts 140°
2026-05-04 15:10 46.73406 -1.05533 19944 ft 362 kts 141°
2026-05-04 15:11 46.71514 -1.03091 20527 ft 365 kts 141°
2026-05-04 15:11 46.69605 -1.00632 21089 ft 367 kts 141°
2026-05-04 15:11 46.67685 -0.98156 21696 ft 370 kts 141°
2026-05-04 15:11 46.65749 -0.95661 22305 ft 373 kts 141°
2026-05-04 15:12 46.63798 -0.93144 22882 ft 376 kts 141°
2026-05-04 15:12 46.61835 -0.90617 23434 ft 378 kts 141°
2026-05-04 15:12 46.59858 -0.88078 23901 ft 381 kts 141°
2026-05-04 15:12 46.57870 -0.85526 24392 ft 382 kts 141°
2026-05-04 15:13 46.55873 -0.82963 24865 ft 383 kts 141°
2026-05-04 15:13 46.53874 -0.80390 25322 ft 385 kts 142°
2026-05-04 15:13 46.51868 -0.77805 25768 ft 386 kts 142°
2026-05-04 15:13 46.49859 -0.75213 26208 ft 387 kts 142°
2026-05-04 15:14 46.47844 -0.72616 26625 ft 389 kts 142°
2026-05-04 15:14 46.45816 -0.70008 27022 ft 390 kts 142°
2026-05-04 15:14 46.43847 -0.67280 27422 ft 395 kts 135°
2026-05-04 15:14 46.42184 -0.64074 27812 ft 402 kts 126°
2026-05-04 15:15 46.40862 -0.60475 28191 ft 406 kts 122°
2026-05-04 15:15 46.39582 -0.56817 28567 ft 408 kts 122°
2026-05-04 15:15 46.38287 -0.53147 28930 ft 410 kts 122°
2026-05-04 15:16 46.35672 -0.45780 29644 ft 413 kts 122°
2026-05-04 15:16 46.34358 -0.42078 29982 ft 415 kts 122°
2026-05-04 15:16 46.31702 -0.34615 30496 ft 419 kts 122°
2026-05-04 15:17 46.30360 -0.30857 30726 ft 422 kts 122°
2026-05-04 15:17 46.27648 -0.23275 31173 ft 427 kts 122°
2026-05-04 15:17 46.26277 -0.19450 31421 ft 429 kts 122°
2026-05-04 15:18 46.24905 -0.15629 31748 ft 428 kts 122°
2026-05-04 15:18 46.23532 -0.11808 32067 ft 428 kts 122°
2026-05-04 15:18 46.22161 -0.07990 32375 ft 429 kts 123°
2026-05-04 15:19 46.19414 -0.00355 32990 ft 429 kts 123°
2026-05-04 15:19 46.18121 0.03536 33323 ft 433 kts 117°
2026-05-04 15:19 46.16268 0.11857 33940 ft 436 kts 113°
2026-05-04 15:20 46.15366 0.16040 34207 ft 436 kts 113°
2026-05-04 15:20 46.14462 0.20218 34460 ft 437 kts 113°
2026-05-04 15:20 46.13553 0.24403 34685 ft 437 kts 113°
2026-05-04 15:20 46.12639 0.28590 34878 ft 439 kts 113°
2026-05-04 15:21 46.10820 0.36893 34929 ft 431 kts 113°
2026-05-04 15:22 46.08113 0.49186 34928 ft 429 kts 114°
2026-05-04 15:22 46.05396 0.61467 34924 ft 429 kts 114°
2026-05-04 15:23 46.03573 0.69659 34919 ft 430 kts 114°
2026-05-04 15:23 46.01740 0.77853 34921 ft 430 kts 114°
2026-05-04 15:24 45.98061 0.94238 34914 ft 431 kts 114°
2026-05-04 15:25 45.96216 1.02427 34911 ft 430 kts 114°
2026-05-04 15:26 45.93434 1.14689 34909 ft 430 kts 114°
2026-05-04 15:26 45.90637 1.26934 34905 ft 430 kts 114°
2026-05-04 15:27 45.87830 1.39165 34902 ft 430 kts 114°
2026-05-04 15:28 45.85004 1.51379 34902 ft 430 kts 114°
2026-05-04 15:29 45.82158 1.63650 34906 ft 431 kts 114°
2026-05-04 15:30 45.75485 1.92124 34914 ft 431 kts 114°
2026-05-04 15:31 45.72607 2.04318 34909 ft 431 kts 114°
2026-05-04 15:32 45.67765 2.24635 34914 ft 432 kts 114°
2026-05-04 15:34 45.62879 2.44961 34908 ft 433 kts 114°
2026-05-04 15:34 45.59922 2.57166 34910 ft 434 kts 114°
2026-05-04 15:35 45.56942 2.69391 34912 ft 435 kts 114°
2026-05-04 15:36 45.53944 2.81638 34910 ft 436 kts 115°
2026-05-04 15:36 45.51744 2.89682 34914 ft 435 kts 118°
2026-05-04 15:37 45.49316 2.97578 34910 ft 435 kts 120°
2026-05-04 15:37 45.46869 3.05478 34918 ft 437 kts 119°
2026-05-04 15:38 45.44465 3.13433 34916 ft 438 kts 119°
2026-05-04 15:38 45.42072 3.21413 34924 ft 438 kts 119°
2026-05-04 15:39 45.39669 3.29388 34926 ft 439 kts 119°
2026-05-04 15:40 45.36042 3.41362 34929 ft 440 kts 120°
2026-05-04 15:40 45.33604 3.49352 34945 ft 441 kts 120°
2026-05-04 15:41 45.31153 3.57355 34956 ft 442 kts 120°
2026-05-04 15:41 45.28695 3.65360 34963 ft 442 kts 120°
2026-05-04 15:42 45.26227 3.73364 34967 ft 442 kts 121°
2026-05-04 15:42 45.23122 3.80762 34968 ft 435 kts 129°
2026-05-04 15:43 45.19838 3.87962 34965 ft 436 kts 129°
2026-05-04 15:43 45.16544 3.95187 34966 ft 437 kts 129°
2026-05-04 15:44 45.13240 4.02427 34967 ft 438 kts 130°
2026-05-04 15:44 45.09930 4.09664 34969 ft 438 kts 130°
2026-05-04 15:45 45.06610 4.16901 34972 ft 439 kts 130°
2026-05-04 15:45 45.03217 4.24056 34980 ft 434 kts 136°
2026-05-04 15:46 44.99198 4.30332 34990 ft 431 kts 140°
2026-05-04 15:46 44.95143 4.36574 34997 ft 432 kts 140°
2026-05-04 15:47 44.91084 4.42823 34995 ft 432 kts 140°
2026-05-04 15:47 44.87015 4.49057 35003 ft 432 kts 140°
2026-05-04 15:48 44.82933 4.55289 35010 ft 433 kts 140°
2026-05-04 15:48 44.77512 4.63559 35003 ft 431 kts 140°
2026-05-04 15:49 44.73433 4.69757 34998 ft 432 kts 140°
2026-05-04 15:49 44.69351 4.75952 35000 ft 432 kts 140°
2026-05-04 15:50 44.65259 4.82132 35003 ft 432 kts 140°
2026-05-04 15:50 44.61202 4.88386 34993 ft 434 kts 139°
2026-05-04 15:51 44.57234 4.94783 34988 ft 435 kts 138°
2026-05-04 15:51 44.53243 5.01227 34686 ft 433 kts 138°
2026-05-04 15:52 44.51270 5.04390 34429 ft 429 kts 139°
2026-05-04 15:52 44.49335 5.07475 33964 ft 426 kts 139°
2026-05-04 15:52 44.47361 5.10612 33637 ft 422 kts 139°
2026-05-04 15:52 44.45422 5.13689 33320 ft 420 kts 139°
2026-05-04 15:53 44.43494 5.16742 33011 ft 418 kts 139°
2026-05-04 15:53 44.41572 5.19779 32698 ft 415 kts 139°
2026-05-04 15:53 44.39663 5.22794 32388 ft 413 kts 138°
2026-05-04 15:53 44.37755 5.25771 32082 ft 408 kts 141°
2026-05-04 15:54 44.35652 5.28359 31685 ft 399 kts 149°
2026-05-04 15:54 44.33469 5.30739 31219 ft 396 kts 149°
2026-05-04 15:54 44.31304 5.33091 30779 ft 393 kts 149°
2026-05-04 15:54 44.29154 5.35428 30341 ft 390 kts 148°
2026-05-04 15:55 44.27023 5.37744 29876 ft 387 kts 148°
2026-05-04 15:55 44.24908 5.40039 29431 ft 384 kts 148°
2026-05-04 15:55 44.22814 5.42319 29007 ft 381 kts 148°
2026-05-04 15:55 44.20732 5.44584 28581 ft 378 kts 148°
2026-05-04 15:56 44.18664 5.46829 28160 ft 376 kts 148°
2026-05-04 15:56 44.16608 5.49062 27741 ft 374 kts 148°
2026-05-04 15:56 44.14560 5.51281 27321 ft 372 kts 148°
2026-05-04 15:56 44.12523 5.53484 26912 ft 370 kts 148°
2026-05-04 15:57 44.10501 5.55672 26499 ft 368 kts 148°
2026-05-04 15:57 44.08485 5.57857 26089 ft 366 kts 148°
2026-05-04 15:57 44.06480 5.60024 25674 ft 364 kts 148°
2026-05-04 15:57 44.04486 5.62176 25271 ft 362 kts 148°
2026-05-04 15:58 44.02495 5.64316 24862 ft 360 kts 148°
2026-05-04 15:58 44.00518 5.66443 24462 ft 359 kts 147°
2026-05-04 15:58 43.98722 5.68379 24092 ft 357 kts 147°
2026-05-04 15:58 43.96760 5.70491 23693 ft 356 kts 147°
2026-05-04 15:59 43.94805 5.72593 23253 ft 354 kts 147°
2026-05-04 15:59 43.92864 5.74681 22850 ft 352 kts 147°
2026-05-04 15:59 43.90937 5.76753 22457 ft 349 kts 147°
2026-05-04 15:59 43.89020 5.78804 22072 ft 347 kts 147°
2026-05-04 16:00 43.87114 5.80846 21686 ft 345 kts 147°
2026-05-04 16:00 43.85223 5.82869 21291 ft 343 kts 147°
2026-05-04 16:00 43.83340 5.84879 20907 ft 340 kts 147°
2026-05-04 16:00 43.81471 5.86871 20523 ft 338 kts 147°
2026-05-04 16:01 43.79610 5.88852 20144 ft 336 kts 147°
2026-05-04 16:01 43.77764 5.90816 19766 ft 334 kts 147°
2026-05-04 16:01 43.75929 5.92770 19391 ft 332 kts 146°
2026-05-04 16:01 43.74108 5.94715 19017 ft 330 kts 146°
2026-05-04 16:02 43.72292 5.96649 18646 ft 328 kts 146°
2026-05-04 16:02 43.70486 5.98567 18266 ft 327 kts 146°
2026-05-04 16:02 43.66904 6.02364 17505 ft 321 kts 146°
2026-05-04 16:03 43.65137 6.04231 17151 ft 319 kts 147°
2026-05-04 16:03 43.63381 6.06086 16790 ft 317 kts 146°
2026-05-04 16:03 43.61633 6.07931 16438 ft 315 kts 146°
2026-05-04 16:03 43.60045 6.10020 16081 ft 319 kts 132°
2026-05-04 16:04 43.58890 6.12648 15737 ft 323 kts 117°
2026-05-04 16:04 43.57303 6.18448 15058 ft 322 kts 115°
2026-05-04 16:04 43.56510 6.21329 14713 ft 321 kts 115°
2026-05-04 16:05 43.55718 6.24193 14376 ft 319 kts 115°
2026-05-04 16:05 43.54929 6.27045 14028 ft 319 kts 115°
2026-05-04 16:05 43.53353 6.32736 13320 ft 316 kts 115°
2026-05-04 16:06 43.52572 6.35554 12985 ft 313 kts 115°
2026-05-04 16:06 43.50440 6.42873 12127 ft 303 kts 123°
2026-05-04 16:07 43.48733 6.45852 11726 ft 294 kts 137°
2026-05-04 16:07 43.44531 6.51885 10837 ft 288 kts 136°
2026-05-04 16:08 43.43151 6.53873 10541 ft 286 kts 136°
2026-05-04 16:08 43.39240 6.59948 9650 ft 282 kts 121°
2026-05-04 16:09 43.38268 6.65142 9027 ft 284 kts 95°
2026-05-04 16:09 43.38058 6.70502 8399 ft 279 kts 96°
2026-05-04 16:10 43.37853 6.75542 7839 ft 248 kts 96°
2026-05-04 16:11 43.37562 6.82431 7104 ft 236 kts 96°
2026-05-04 16:11 43.37484 6.84204 6912 ft 234 kts 96°
2026-05-04 16:12 43.37195 6.90843 6133 ft 230 kts 96°
2026-05-04 16:12 43.36899 6.97478 4929 ft 233 kts 94°
2026-05-04 16:13 43.36843 7.01904 4204 ft 231 kts 77°
2026-05-04 16:13 43.38650 7.05494 3507 ft 229 kts 49°
2026-05-04 16:14 43.40738 7.08469 3057 ft 199 kts 49°
2026-05-04 16:14 43.42532 7.11026 2985 ft 185 kts 49°
2026-05-04 16:15 43.45144 7.14760 2989 ft 159 kts 49°
2026-05-04 16:16 43.46874 7.16130 3010 ft 141 kts 18°
2026-05-04 16:16 43.49865 7.16008 3006 ft 146 kts
2026-05-04 16:17 43.51876 7.15817 2887 ft 144 kts
2026-05-04 16:18 43.54853 7.15531 2284 ft 143 kts
2026-05-04 16:18 43.55853 7.15435 2089 ft 142 kts
2026-05-04 16:19 43.58703 7.15237 1521 ft 139 kts
2026-05-04 16:19 43.60615 7.15415 1280 ft 137 kts 15°
2026-05-04 16:20 43.62958 7.17226 770 ft 126 kts 52°
2026-05-04 16:20 43.64147 7.18968 421 ft 124 kts 50°
2026-05-04 16:21 43.65823 7.21306 23 ft 64 kts 43°
2026-05-04 16:22 43.66160 7.21755 22 ft 16 kts 28°
2026-05-04 16:22 43.66302 7.21634 22 ft 4 kts 314°
2026-05-04 16:23 43.66304 7.21376 22 ft 22 kts 226°
2026-05-04 16:24 43.66000 7.20955 22 ft 10 kts 224°
2026-05-04 16:25 43.65995 7.20825 22 ft 11 kts 334°
2026-05-04 16:26 43.66181 7.20772 23 ft 4 kts 317°
2026-05-04 16:26 43.66170 7.20675 22 ft 0 kts 261°